Regional Weather Roundup
Issued by NWS New Orleans/Baton Rouge, LA

Home | Current Version | Previous Version | Text Only | Print | Product List | Glossary Off
Versions: 1 2 3 4 5 6 7 8 9 10 11 12 13 14 15 16 17 18 19 20 21 22 23 24 25 26 27 28 29 30 31 32 33 34 35 36 37 38 39 40 41 42 43 44 45 46 47 48 49 50

956
ASUS44 KLIX 301501
RWRLIX
NEW ORLEANS REGIONAL WEATHER ROUNDUP
NATIONAL WEATHER SERVICE NEW ORLEANS LA
1000 AM CDT SAT AUG 30 2014

NOTE: "FAIR" INDICATES FEW OR NO CLOUDS BELOW 12,000 FEET WITH NO
      SIGNIFICANT WEATHER AND/OR OBSTRUCTIONS TO VISIBILITY.
      SKY/WX - SKY CONDITION AND SIGNIFICANT WEATHER.
      TMP - AIR TEMPERATURE.     DP    - DEWPOINT TEMPERATURE.
      RH  - RELATIVE HUMIDITY.   PRES  - PRESSURE.
      HI  - HEAT INDEX.          WCI   - WIND CHILL INDEX.

*  THESE STATIONS ARE NOT NWS OR FAA STATIONS AND ARE NOT UNDER
   NWS QUALITY CONTROL.

LAZ038-040-048-061>063-065>067-069-301600-
SOUTHEAST LOUISIANA

CITY           SKY/WX    TMP DP  RH WIND       PRES   REMARKS
N.O. AUDUBON     N/A     78  76  93 MISG        N/A
N.O. INTL ARPT LGT RAIN  82  74  76 SE14G30   30.03R
N.O. LAKEFRONT RAIN      84  77  79 S21G32    30.04R VSB 3/4
N.O. DOWNTOWN* PTSUNNY   81  72  74 CALM      30.04R
SLIDELL        CLOUDY    86  77  74 SE12      30.04R HX  97
BATON ROUGE    CLOUDY    82  76  81 SE10      30.01R
BOOTHVILLE     MOSUNNY   86  79  79 SE9G20    30.04R HX  99
BELLE CHASSE   PTSUNNY   84  77  79 SE6       30.01F
BOGALUSA*        N/A     87  76  69 SE12      30.06R HX  97
GALLIANO*      NOT AVBL
NEW ROADS*     RAIN      79  77  94 SE6       30.00S
GONZALES*      PTSUNNY   84  80  85 SE7       30.00S THUNDER HX  97
HAMMOND*       NOT AVBL
HOUMA*         NOT AVBL
PORT FOURCHON* PTSUNNY   84  77  79 SE16G32   30.03R HAZE

$$

MSZ070-080>082-301600-
SOUTHERN MISSISSIPPI

CITY           SKY/WX    TMP DP  RH WIND       PRES   REMARKS
MCCOMB         PTSUNNY   83  75  77 S12       30.05R
GULFPORT       MOSUNNY   87  77  72 SE13      30.05R HX  99
BILOXI         NOT AVBL
PASCAGOULA     MOSUNNY   87  76  69 SE12      30.07R HX  97
STENNIS ARPT*  PTSUNNY  N/A N/A N/A SE12      30.05R

$$

COASTAL OBSERVATIONS
LAKE AND NEARSHORE STATIONS

STATION/POSITION TIME  TEMP    WIND        PRES    WAVE
                       AIR SEA DIR/SP/G            HT/PER
                 (UTC) (F)     (DEG/KT/KT) (MB)    (FT/S)
PASCAGOULA       1400   87     140/ 11/ 15 1017.5
WAVELAND YACHT   1400   84     160/ 11/ 15 1017.0
GRAND ISLE       1400   80 83  160/ 10/ 18 1017.5
SOUTHWEST PASS   1400   85 88  140/ 14/ 20 1017.2
NEW CANAL        1400   85 82  160/  7/ 12 1017.0
SHELL BEACH      1400   84 81  130/ 15/ 18 1016.8

OFFSHORE STATIONS

STATION/POSITION TIME  TEMP    WIND        PRES    WAVE
                       AIR SEA DIR/SP/G            HT/PER
                 (UTC) (F)     (DEG/KT/KT) (MB)    (FT/S)
64 S DAUPHIN ISL 1500   85 85  140/ 17/ 19 1018.1

$$




USA.gov is the U.S. government's official web portal to all federal, state and local government web resources and services.